www.pogodaiklimat.ru

Погода и климат >> Архив погоды >> Россия >> Якутия >> Усть-Нера


ПОГОДА в Усть-Нере

  • Прогноз погоды в Усть-Нере
  • Монитор погоды в Усть-Нере

АРХИВ ПОГОДЫ в Усть-Нере

Время (UTC), дата Ветер
(напр.,м/с)
 
Видим.   Явления Облачность Т
(С)
Тd
(С)
f
(%)
Тe
(С)
Тes
(С)
Комфортность P
(гПа)
Po
(гПа)
Тmin
(С)
Tmax
(С)
R
(мм)
R24
(мм)
S
(см)
09 18.06 СВ 5
{10}
50 км 10/4 1500 м
[Cb cap Ac trans Ci fib]
+17.3 +3.9 41 +17 +17 1009.7 950.2 +19.4 0.0
12 18.06 СВ 3 50 км 10/4 1500 м
[Sc Ac trans Ci fib]
+15.1 +5.2 52 +15 +15 1011.0 951.0
15 18.06 СВ 4 50 км 10/5 1500 м
[Sc Ci fib]
+12.9 +5.9 62 +11 +11 1012.1 951.6
18 18.06 СВ 3 50 км 10/5 1500 м
[Sc Ci fib]
+11.0 +6.1 72 +9 +9 1013.0 952.1
21 18.06 В 4 50 км 10/5 1500 м
[Sc Ac trans Ci fib]
+13.3 +6.7 64 +12 +12 1012.6 952.2 +10.6
00 19.06 В 4 50 км 9/5 1500 м
[Cb cap Ac trans]
+17.2 +6.5 49 +17 +19 1011.7 952.2
03 19.06 СВ 4 50 км 8/8 1500 м
[Cb cap]
+20.9 +7.1 41 +22 +24 комфорт 1010.3 951.5
06 19.06 В 4 50 км 8/5 1500 м
[Cb cap Ac trans]
+21.0 +6.1 38 +22 +24 комфорт 1009.2 950.5
09 19.06 В 2 20 км слаб. ливневой дождь 10/9 1500 м
[Cb cap Ac und]
+18.1 +10.3 60 +19 +19 1010.1 950.9 +22.0 0.0
12 19.06 СВ 3 50 км {ливн. осадки} 10/10 1500 м
[Cb cap]
+15.1 +11.0 76 +14 +14 1010.7 950.8
15 19.06 СВ 4 50 км 10/10 1500 м
[Cb cap]
+13.0 +10.9 87 +11 +11 1012.0 951.6
18 19.06 В 4 50 км {ливн. осадки} 10/8 1500 м
[Cb cap Ac und]
+11.2 +11.0 99 +9 +9 1011.9 951.2
21 19.06 СВ 4 20 км слаб. ливневой дождь 10/9 1410 м
[Cb cap Ac und]
+12.1 +11.9 99 +10 +10 1011.5 951.0 +10.9 3
00 20.06 СВ 5 50 км {ливн. осадки} 9/5 1500 м
[Cb cap Ac trans]
+14.6 +11.2 80 +13 +14 1010.8 950.8
03 20.06 В 4 50 км 9/5 1500 м
[Cb cap Ac trans Ci fib]
+18.3 +10.7 61 +18 +21 1008.7 949.6
06 20.06 СВ 4 50 км {ливн. осадки} 10/6 1500 м
[Cb cap Ac und]
+16.9 +11.6 71 +16 +17 1008.5 949.2
09 20.06 В 4 50 км 10/5 1500 м
[Cb cap Ac und]
+17.4 +9.6 60 +17 +17 1008.4 949.2 +19.6 0.3
12 20.06 СВ 3 50 км 9/5 1500 м
[Cb cap Ac trans]
+14.7 +9.9 73 +14 +14 1009.8 949.9
15 20.06 СВ 4 50 км {ливн. осадки} 10/5 1500 м
[Cb cap Ac trans Ci fib]
+12.0 +10.5 91 +10 +10 1011.0 950.5
18 20.06 СВ 3 50 км 10/5 1500 м
[Cb cap Ac trans Ci fib]
+11.5 +10.1 91 +10 +10 1011.5 950.9
21 20.06 СВ 5 50 км 10/4 1500 м
[Cb cap Ac trans Ci fib]
+15.4 +10.9 75 +14 +15 1011.2 951.4 +11.3 0.0
00 21.06 СВ 4 50 км 8/4 1500 м
[Cb cap Ac trans Ci fib]
+20.3 +10.1 52 +22 +25 комфорт 1010.2 951.4
03 21.06 В 5 50 км 10/5 1500 м
[Cb cap Ac trans Ci fib]
+20.1 +9.2 49 +21 +23 комфорт 1009.8 951.0
06 21.06 В 3 50 км в посл. час ливневой дождь 10/6 1500 м
[Cb cap Ac trans Cs]
+20.6 +11.2 55 +23 +24 комфорт 1009.4 950.7
09 21.06 В 3 50 км 10/8 1500 м
[Cb cap Ac trans Cs]
+19.7 +9.6 52 +21 +21 комфорт 1010.1 951.2 +21.9 0.1
12 21.06 СВ 4 50 км {ливн. осадки} 10/9 1500 м
[Cb cap Ci fib]
+15.1 +10.6 74 +14 +14 1012.5 952.5
15 21.06 СВ 3 20 км слаб. ливневой дождь 10/10 1500 м
[Cb cap]
+13.2 +11.5 89 +12 +12 1013.4 953.0
18 21.06 СВ 4 50 км {ливн. осадки} 10/5 1500 м
[Cb cap Ac trans Ci fib]
+11.7 +10.7 94 +9 +9 1013.7 953.0
21 21.06 СВ 4 20 км слаб. ливневой дождь 10/8 1500 м
[Cb cap As op]
+12.0 +10.7 92 +10 +10 1014.0 953.4 +11.6 0.3
00 22.06 В 2 50 км {ливн. осадки} 10/4 1500 м
[Cb cap Ac trans Ci fib]
+16.2 +11.8 75 +16 +19 1013.2 953.4
03 22.06 СВ 4
{10}
50 км {ливн. осадки} 9/5 1500 м
[Cb cap Ac trans]
+19.3 +10.0 55 +20 +22 1011.8 952.6
06 22.06 В 4 50 км {ливн. осадки} 6/6 1500 м
[Cu med, cong]
+21.2 +8.8 45 +22 +25 комфорт 1009.8 951.2
09 22.06 ЮВ 5
{12}
50 км 9/9 1500 м
[Cb cap]
+21.4 +7.8 42 +22 +23 комфорт 1009.5 950.9 +22.8 0.0
12 22.06 штиль 0 50 км {ливн. осадки} 8/3 1500 м
[Sc Ci fib]
+12.0 +9.6 85 +11 +11 1012.5 951.9
15 22.06 штиль 0 50 км 3/3 1500 м
[Sc]
+6.2 +5.5 95 +5 +5 1014.1 952.1
18 22.06 З 2 50 км 8/4 1500 м
[Sc Ac trans]
+7.1 +6.9 99 +5 +5 1014.1 952.3
21 22.06 штиль 0 50 км 9/5 1500 м
[Sc Ac trans]
+9.5 +8.4 93 +9 +10 1013.5 952.4 +5.4 0.1
00 23.06 В 1 50 км 8/3 1500 м
[Cb cap Ac trans]
+15.5 +11.0 75 +16 +21 1010.9 951.1
03 23.06 СВ 3 50 км 6/6 1500 м
[Cb cap]
+23.1 +10.0 43 +25 +29 комфорт 1006.7 948.6
06 23.06 СВ 7
{11}
50 км гроза без осадков {ливн. осадки} 10/10 1500 м
[Cb cap]
+20.3 +8.5 47 +21 +21 комфорт 1007.9 949.2
09 23.06 В 3
{11}
50 км {гроза, ливн. осадки} 8/3 1500 м
[Cb cap Ci fib]
+16.3 +10.3 68 +16 +17 1009.2 949.7 +24.2 0.4
12 23.06 СВ 3 50 км {гроза, ливн. осадки} 3/3 1500 м
[Sc Ci fib]
+13.0 +9.3 78 +12 +12 1009.9 949.7
15 23.06 СВ 3 50 км 8/8 1500 м
[Sc]
+10.7 +9.3 91 +9 +9 1010.8 950.0
18 23.06 СВ 4 50 км 9/5 1500 м
[Sc Ac trans]
+12.1 +8.9 81 +10 +10 1011.0 950.5
21 23.06 В 3 50 км 10/8 1500 м
[Cb cap Ac und]
+14.4 +8.5 68 +14 +14 1011.1 951.0 +10.6
00 24.06 В 4 50 км 10/5 1500 м
[Cb cap Ac trans Ci fib]
+16.6 +9.1 61 +16 +18 1010.7 951.2
03 24.06 В 6
{10}
50 км 9/6 1500 м
[Cb cap Ac trans]
+19.9 +8.9 49 +21 +22 комфорт 1009.1 950.2
06 24.06 ЮЗ 1
{11}
50 км 6/6 1500 м
[Cb cap]
+20.3 +7.2 43 +22 +26 комфорт 1008.5 949.7
09 24.06 З 4 50 км 8/8 1500 м
[Cb cap]
+19.2 +8.2 49 +20 +20 1009.6 950.6 +22.4
12 24.06 штиль 0 50 км 6/3 1500 м
[Sc Ci fib]
+11.5 +8.3 81 +11 +11 1012.4 951.6
15 24.06 штиль 0 50 км 9/4 1500 м
[Cb cap Ac trans]
+7.4 +6.5 94 +6 +6 1014.5 952.8
18 24.06 СВ 2 50 км 6/3 1500 м
[Sc Ci fib]
+5.1 +4.6 97 +2 +2 1016.1 953.7
21 24.06 В 2 50 км 8/1 1500 м
[Sc Ci fib]
+13.5 +6.9 64 +13 +16 1014.8 954.3 +4.5
00 25.06 СВ 5 50 км 8/4 1500 м
[Cb cap Ci fib]
+19.2 +6.2 43 +19 +22 1012.9 953.7
03 25.06 СВ 4 50 км 9/6 1500 м
[Cb cap Ci fib]
+21.3 +5.8 36 +22 +25 комфорт 1011.4 952.7
06 25.06 В 4 50 км 9/5 1500 м
[Cb cap Ac trans Ci fib]
+22.7 +4.2 30 +23 +24 комфорт 1010.5 952.0

 

Местоположение метеостанции Усть-Нера (Якутия, Россия): широта 64.53 долгота 143.10 высота над уровнем моря 519 м.

В архиве по умолчанию представлена погода в Усть-Нере за последнюю неделю. Архивные данные за месяц целиком и за предыдущие месяцы, начиная с января 2011 года, Вы можете получить, выбрав интересующий диапазон дат из раскрывающегося списка и нажав кнопку "Ввод!".


*Определитесь, кто Вы:
робот инопланетянин человек

Внимание! Время в таблицах - всемирное. Для получения местного времени необходимо прибавить поправку, которая равна 10 ч.

Смотрите также архив погоды в соседних городах и на ближайших метеорологических станциях:

Погода в Юртах (Якутия, Россия) (82 км)
Погода в Оймяконе (Якутия, Россия) (142 км)
Погода в Делянкире (Якутия, Россия) (144 км)
Погода в Агаякане (Якутия, Россия) (150 км)
Погода в Усть-Моме (Якутия, Россия) (214 км)
Погода в Восточной (Якутия, Россия) (224 км)
Погода в Сусумане (Магаданская область, Россия) (314 км)
Погода в Иэме (Якутия, Россия) (355 км)
Погода в Томпо (Якутия, Россия) (359 км)
Погода в Теплом Ключе (Якутия, Россия) (367 км)

Пояснения к столбцам:

Ветер - указаны скорость ветра в м/с - средняя за 10 мин, порывы в срок и между сроками (в фигурных скобках) и направление, откуда дует ветер: С - северный, СВ - северо-восточный, В - восточный, ЮВ - юго-восточный, Ю - южный, ЮЗ - юго-западный, З - западный, СЗ - северо-западный.
Видимость - горизонтальная дальность видимости в метрах или километрах. При видимости от 1 до 10 км при отсутствии осадков обычно наблюдается дымка, при ухудшении видимости до 1 км и менее - туман. В сухую погоду видимость может ухудшаться дымом, пылью или мглою.
Явления - указаны атмосферные явления, наблюдавшиеся в срок или в последний час перед сроком; фигурными скобками обозначены явления, наблюдавшиеся между сроками (за 1-3 часа до срока); квадратными скобками обозначены град или гололедные отложения с указанием их диаметра в мм.
Облачность - указаны через наклонную черту общая и нижняя облачность в баллах и высота нижней границы облаков в метрах; квадратными скобками обозначены формы облаков: Ci - перистые, Cs - перисто-слоистые, Cc - перисто-кучевые, Ac - высококучевые, As - высокослоистые, Sc - слоисто-кучевые, Ns - слоисто-дождевые, Cu - кучевые, Cb - кучево-дождевые. Подробнее классификацию облаков см. в Атласе облаков (PDF).
T - Температура воздуха - температура, измеренная на высоте 2 м над землей.
Td - Температура точки росы - температура, при понижении до которой содержащийся в воздухе водяной пар достигнет насыщения.
f - Относительная влажность воздуха - влажноcть воздуха, измеренная на высоте 2 м над землей.
Te - Эффективная температура - температура, которую ощущает одетый по сезону человек в тени. Характеристика душности погоды. При расчете учитывается влияние влажности воздуха и скорости ветра на теплоощущения человека.
Tes - Эффективная температура на солнце - температура, которую ощущает человек, с поправкой на солнечный нагрев. Характеристика знойности погоды. Зависит от высоты солнца над горизонтом, облачности и скорости ветра. Ночью, в пасмурную погоду, а также при ветре 12 м/с и более поправка равна нулю.
P - Атмосферное давление - приведенное к уровню моря атмосферное давление.
Po - Атмосферное давление - измеренное на уровне метеостанции атмосферное давление.
Tmin - Минимальная температура - минимум температуры воздуха на высоте 2 м над землей.
Tmax - Максимальная температура - максимум температуры воздуха на высоте 2 м над землей.
R - Количество осадков - Количество выпавших осадков за период времени, мм. При наведении курсора мыши на число - период времени, за который выпало указанное количество осадков.
R24 - Количество осадков - Количество выпавших осадков за 24 часа, мм.
S - Снежный покров - Высота снежного покрова, см. При наведении курсора мыши на число - состояние снежного покрова и степень покрытия местности в баллах.